GFSSE_925_rhum_021.txt.gz
RH
92 89 78 74 73 70 69 68 69 72 76 75 71 67 65 62 60 58 58 58 54 72 74 75 57 52 50 50 52 59 66 71 67 61 60 52 57 60 63 58 70 66 64
88 84 77 72 70 69 70 71 77 82 78 73 69 65 60 60 60 52 48 57 73 92 81 59 57 49 46 48 49 52 61 67 69 65 59 59 65 62 59 64 66 64 65
88 83 75 71 70 72 74 80 83 74 71 66 60 54 54 48 43 45 42 35 26 34 40 31 26 25 26 30 41 57 57 61 71 68 64 64 65 68 61 56 70 68 72
87 81 75 72 73 75 76 75 72 67 65 60 52 52 46 43 41 32 20 18 20 20 21 22 22 23 24 25 29 42 54 60 66 70 71 68 68 66 59 56 63 65 72
91 82 77 75 75 74 74 70 68 71 67 54 49 45 42 40 34 25 18 18 18 21 22 23 23 23 23 24 30 38 49 62 63 71 76 72 69 64 65 59 59 58 68
90 88 83 81 78 77 73 74 71 58 50 46 43 41 38 36 34 27 21 20 22 26 29 37 39 33 28 41 46 49 43 59 74 77 76 73 72 74 81 65 62 55 66
96 90 89 84 80 75 71 64 51 46 42 43 40 35 33 36 32 33 32 37 45 46 49 50 51 51 47 50 50 50 51 56 61 70 77 74 67 60 56 53 58 68 60
86 93 84 70 64 61 51 44 42 41 42 39 36 40 50 42 50 53 53 50 51 52 50 53 53 55 53 52 45 46 50 54 54 57 62 75 72 68 56 61 66 66 66
79 66 58 52 45 40 41 42 41 40 40 39 50 56 57 55 58 59 57 52 52 52 49 50 50 50 51 50 48 39 39 47 50 50 55 77 77 72 68 66 63 63 64
55 41 32 29 33 37 38 37 38 36 40 57 60 61 60 61 62 62 61 57 55 52 48 49 50 50 49 47 50 45 40 33 38 45 46 50 68 69 68 62 56 51 57
45 34 36 26 26 27 31 35 43 54 60 65 66 64 63 64 65 66 63 57 53 48 49 48 50 48 45 45 46 46 44 40 36 33 39 41 53 65 64 56 48 42 40
48 44 42 35 34 35 45 51 60 63 63 67 68 65 65 67 69 62 60 58 56 48 46 47 50 46 44 46 48 48 46 46 43 39 34 36 38 42 45 52 43 34 28
46 51 49 41 44 42 52 55 58 60 61 63 64 64 62 65 61 57 53 50 50 48 48 49 50 52 51 53 54 54 52 50 48 45 43 39 35 33 37 42 41 40 38
51 52 50 46 47 50 49 53 56 61 63 65 60 58 56 57 55 51 49 51 52 53 54 52 49 46 44 48 54 55 56 57 57 49 42 41 40 38 36 36 55 53 45
55 53 51 52 48 52 54 52 53 58 64 63 59 54 51 54 51 51 49 50 50 46 40 38 36 36 37 41 46 50 49 48 50 52 54 53 46 39 37 35 34 50 58
53 52 50 50 52 50 48 52 52 55 60 57 57 49 45 51 49 51 49 47 36 37 38 37 37 38 39 39 38 38 38 37 36 39 44 45 49 50 48 46 39 40 36
55 50 54 59 55 51 50 51 52 49 51 56 52 46 47 53 54 50 40 36 39 40 39 38 37 36 36 35 32 28 29 34 35 35 40 47 52 51 51 51 53 45 39
58 57 63 59 53 53 53 53 48 48 54 54 50 53 55 52 44 40 40 41 41 40 40 40 41 38 38 37 35 30 34 36 36 41 41 49 52 53 49 49 53 55 52
67 69 68 63 63 61 61 47 51 47 44 55 55 49 45 43 41 41 42 41 40 40 42 45 42 45 42 37 36 38 40 43 42 50 57 55 60 61 62 62 65 64 59
79 75 74 70 70 74 65 51 48 47 48 47 45 43 42 43 43 44 43 41 40 39 38 37 37 37 40 55 64 58 58 47 55 56 53 53 56 56 53 51 52 54 68
78 76 70 68 80 47 47 44 45 49 47 46 46 45 45 45 44 42 40 40 39 36 35 39 51 57 62 68 67 70 57 59 53 56 57 54 54 53 50 45 41 40 42
70 64 51 54 57 45 42 46 48 49 52 49 49 48 46 44 43 42 42 42 40 37 40 53 63 66 70 70 82 82 87 65 72 61 59 62 60 59 52 48 45 43 39
43 40 39 38 38 39 41 39 42 47 54 52 50 48 48 49 49 48 46 43 44 49 58 62 65 67 72 66 68 83 95 94 74 66 61 69 62 64 61 56 54 47 52
39 37 36 37 38 38 38 38 38 39 45 57 54 52 53 52 50 48 46 44 49 52 50 63 74 76 78 85 77 78 77 79 88 78 67 64 66 67 70 74 62 60 72
41 42 42 43 42 42 43 44 46 52 55 58 56 54 53 52 60 63 52 50 52 53 63 68 71 78 82 85 85 83 81 86 84 94 87 75 72 78 78 80 68 63 74
51 49 49 48 47 49 52 52 51 52 56 55 54 53 53 58 58 52 52 54 50 56 62 58 68 72 76 80 76 78 94 95 94 94 82 74 76 77 75 82 66 62 54

GFSSE_925_rhum_024.txt.gz
RH
94 92 83 73 68 69 68 68 70 74 73 69 65 62 60 59 58 55 46 46 76 88 83 51 43 42 43 46 51 54 60 65 65 63 62 58 51 59 66 61 69 65 68
90 93 84 74 72 70 71 72 74 72 67 62 57 54 50 46 40 40 40 47 73 80 74 45 32 24 26 33 43 48 52 59 66 66 62 58 59 58 58 58 64 68 71
89 92 85 76 74 75 74 75 74 73 66 59 54 51 43 42 38 28 22 27 60 68 64 36 29 25 24 28 32 43 55 55 66 68 64 62 58 59 64 59 70 70 68
92 91 85 81 78 75 76 80 82 66 58 52 47 41 41 36 24 19 21 22 25 34 42 35 25 24 26 28 31 37 47 62 65 68 69 69 70 69 66 64 65 63 62
89 88 90 80 78 75 74 70 63 58 48 44 41 39 36 31 24 20 20 22 26 32 38 41 35 30 47 50 50 43 51 62 70 72 75 79 77 74 74 72 63 64 68
91 88 85 80 75 70 63 62 61 50 45 42 39 36 34 30 22 21 25 36 42 48 50 50 48 50 52 49 48 49 54 61 68 73 73 76 77 74 84 56 55 63 68
90 88 84 79 69 66 66 64 53 48 42 40 36 32 33 33 40 45 46 48 50 51 52 54 55 53 50 44 40 44 50 54 57 58 64 71 71 73 72 62 63 72 72
93 93 86 77 73 68 62 53 47 42 40 38 35 44 40 51 54 52 50 51 50 49 48 48 49 49 47 47 45 39 36 45 50 50 57 68 75 76 70 76 73 70 70
86 88 83 78 72 62 51 47 42 42 41 43 52 54 53 58 59 57 53 53 51 47 49 46 46 47 45 46 46 45 40 32 33 40 46 48 64 66 67 76 63 61 58
86 81 75 65 52 47 44 41 42 43 42 55 59 59 60 61 62 62 57 55 54 53 51 51 49 47 45 45 46 47 47 43 40 33 32 41 43 53 58 58 51 46 41
81 62 51 43 44 39 40 42 44 44 57 61 63 63 63 64 65 65 64 58 54 51 50 52 53 48 46 47 49 49 48 48 47 44 40 34 36 45 50 46 44 38 33
56 46 40 36 34 34 40 41 48 56 64 66 65 63 66 69 67 65 63 59 52 48 48 51 50 50 48 45 52 51 51 49 49 49 44 42 40 37 35 34 37 37 36
40 44 36 33 30 36 42 53 57 59 65 65 66 68 66 66 68 64 54 51 51 52 51 52 48 42 39 41 45 51 51 50 51 52 52 48 44 42 64 69 62 48 39
48 44 42 41 38 46 51 55 60 64 65 65 66 66 61 61 59 53 50 52 51 49 44 38 37 37 36 37 39 41 44 46 49 51 52 54 53 52 49 47 67 67 66
50 50 48 46 47 46 54 58 62 64 63 67 66 64 65 59 55 53 52 49 41 39 38 38 38 38 36 35 34 32 33 38 39 38 38 40 42 46 50 49 49 60 70
52 55 56 57 52 56 58 57 59 62 65 70 69 64 62 59 54 54 47 39 39 40 40 40 39 39 37 35 31 28 27 27 28 31 32 34 39 44 47 46 46 48 51
56 58 60 61 72 67 64 67 72 66 67 74 71 59 61 60 56 44 39 42 42 41 41 41 40 38 37 35 30 28 28 28 36 40 40 41 40 43 49 50 50 50 51
60 63 65 66 68 67 65 67 75 61 68 70 60 60 57 49 43 42 42 41 42 41 40 38 38 36 34 31 29 28 32 37 43 51 58 60 61 59 58 56 55 55 56
64 65 70 72 74 75 63 81 60 53 59 60 53 48 45 43 42 42 43 42 40 38 38 37 35 35 37 43 44 45 37 34 55 58 55 54 55 54 52 50 48 46 46
82 73 76 80 79 90 81 58 56 53 49 48 46 47 42 49 45 44 42 42 41 40 41 43 43 44 55 69 59 62 46 51 56 59 56 59 58 55 53 50 45 40 35
86 79 75 68 88 61 54 50 46 45 46 51 48 45 46 45 45 43 43 44 42 40 36 40 44 52 56 62 70 61 49 61 41 59 51 58 56 56 56 53 44 42 37
83 80 78 79 64 51 49 50 51 52 52 48 48 48 47 46 45 46 47 48 49 44 32 35 46 64 67 71 76 84 87 67 72 53 51 58 50 61 53 47 51 53 50
51 48 52 60 51 47 48 44 44 49 51 51 50 49 48 48 49 51 57 55 45 40 42 47 62 74 80 76 79 82 90 93 82 64 61 61 66 62 68 66 69 70 58
46 45 44 44 44 42 43 44 46 49 56 64 57 52 52 52 52 60 56 46 41 46 45 58 68 72 78 87 81 85 79 85 84 74 66 68 68 71 71 72 80 77 67
46 44 43 44 44 44 45 47 51 54 57 57 54 52 53 52 56 48 49 48 54 52 59 59 66 74 77 82 83 82 84 92 85 88 84 74 72 70 69 64 77 73 67
50 46 45 45 47 50 51 52 51 51 53 54 54 54 50 49 52 54 52 54 52 47 52 52 54 56 56 62 62 65 78 97 96 98 91 81 89 97 77 74 77 76 72

GFSSE_925_rhum_027.txt.gz
RH
99 98 80 72 72 70 67 71 75 73 70 68 66 63 61 58 52 48 64 64 55 62 71 62 55 55 44 42 46 49 54 60 62 62 59 56 54 65 67 67 71 83 74
94 97 81 75 76 71 72 76 74 70 64 58 53 50 46 39 39 44 45 46 67 74 63 37 24 20 21 26 33 45 48 53 63 65 63 59 54 69 69 72 71 83 77
88 97 86 78 74 74 75 77 71 59 49 44 41 37 35 30 22 23 30 54 70 71 63 51 30 26 27 26 28 32 41 51 59 64 65 74 75 76 82 67 73 72 72
94 96 93 76 76 77 79 72 57 49 43 41 36 34 30 21 22 24 30 38 54 61 57 36 33 44 48 46 42 47 52 58 62 66 78 86 85 76 79 73 69 68 69
90 95 81 76 79 82 80 60 50 46 44 39 37 35 26 23 23 24 31 43 52 62 65 48 51 47 41 43 46 51 58 62 68 72 79 78 86 78 82 69 62 64 65
93 95 81 82 83 83 77 58 52 46 41 40 38 36 32 25 25 38 46 49 51 52 53 52 51 46 42 37 38 47 52 55 58 66 78 74 72 72 74 71 68 71 72
98 97 88 80 82 85 67 58 51 44 42 39 37 37 31 37 46 49 49 48 49 50 50 50 48 49 49 46 41 35 37 44 54 59 64 73 78 72 80 77 73 72 73
91 94 92 86 80 68 64 54 47 42 39 37 40 40 49 50 50 52 53 51 51 49 50 50 49 47 47 48 46 45 41 35 38 47 57 64 63 68 81 73 62 58 56
95 96 95 93 76 68 57 52 45 42 40 46 46 51 56 56 52 53 54 54 52 49 47 45 42 41 42 44 46 45 45 43 41 40 38 45 40 48 75 63 54 48 42
100 99 94 87 79 71 60 50 44 43 47 55 56 56 59 61 60 57 55 52 50 48 48 49 45 44 40 42 45 45 46 44 46 45 45 41 35 48 70 48 42 40 37
100 97 86 76 71 59 52 50 48 46 57 62 61 62 63 64 65 61 56 53 49 48 49 50 48 48 44 38 42 43 41 44 45 54 52 45 42 40 56 58 45 40 38
99 84 70 69 58 51 49 49 51 54 61 65 65 66 68 68 68 68 60 55 49 49 50 50 49 39 36 36 36 35 39 44 48 51 59 56 53 48 46 50 52 56 55
75 66 56 48 47 46 48 52 56 63 68 69 69 69 70 72 73 65 54 52 53 53 49 42 36 37 37 37 36 36 36 42 54 55 53 51 52 52 63 74 71 67 66
70 57 45 45 44 48 52 55 61 64 68 70 71 73 72 72 65 53 54 53 48 41 38 38 38 38 38 37 33 29 26 35 45 45 46 38 41 43 46 63 83 86 81
61 52 47 47 49 54 60 63 68 72 74 77 79 75 70 63 58 56 52 44 40 38 38 39 40 40 36 34 32 28 26 24 23 33 37 25 27 32 39 46 54 59 74
58 61 57 56 57 58 62 66 70 75 83 87 88 75 68 62 59 52 43 41 39 40 40 41 38 37 37 35 36 30 29 41 38 31 47 51 33 38 41 46 50 55 59
59 61 66 68 67 62 65 68 72 77 80 88 84 68 63 61 53 43 41 41 41 42 41 39 38 38 45 41 45 48 48 54 54 53 54 60 61 52 53 51 50 49 50
67 74 82 79 72 70 71 60 63 73 75 86 75 63 59 53 45 43 42 43 43 40 38 38 39 47 53 56 54 48 51 50 63 68 68 62 60 57 54 49 48 46 43
66 77 85 79 73 72 60 63 88 71 70 63 56 51 47 45 44 43 44 42 41 41 41 42 54 50 56 55 46 48 42 43 67 64 68 69 65 63 61 55 46 42 38
94 90 83 84 76 80 75 81 66 62 56 50 50 55 51 50 46 44 43 43 44 47 49 55 58 54 61 66 52 49 45 53 70 65 62 63 65 68 65 64 60 51 44
99 87 77 81 72 78 85 62 57 50 50 54 55 47 48 46 46 45 49 53 50 46 38 47 57 59 48 68 50 45 45 73 73 63 60 63 60 62 62 64 59 58 55
96 97 85 79 73 71 62 54 49 51 59 52 48 48 48 48 48 53 47 47 43 47 42 36 55 59 62 77 64 50 38 36 58 57 56 53 61 66 58 63 67 70 69
91 86 86 78 54 55 52 53 56 56 55 54 52 51 50 50 51 56 42 44 41 44 57 62 72 77 61 69 85 62 51 47 54 49 50 55 59 58 60 54 62 65 74
57 61 71 78 55 56 58 54 55 59 63 67 59 52 52 51 50 53 45 44 48 51 47 58 66 70 70 58 61 66 67 64 53 51 46 50 56 54 56 66 70 77 78
51 51 52 52 52 50 51 52 53 55 55 54 53 52 52 45 45 46 49 50 53 52 38 39 63 68 68 66 63 61 58 58 58 58 56 46 48 51 58 60 70 74 86
48 47 48 52 53 53 53 52 52 53 52 46 43 45 46 46 47 47 51 55 58 48 45 56 60 73 74 73 67 63 53 53 53 55 52 48 47 50 49 55 62 71 76

GFSSE_925_rhum_030.txt.gz
RH
76 80 69 62 60 59 61 62 66 68 68 67 69 67 59 52 46 53 62 64 69 71 68 65 41 25 25 29 38 47 49 56 61 60 56 57 66 88 70 73 72 72 71
81 84 75 68 66 65 66 70 70 69 66 65 60 53 46 41 49 47 49 48 60 66 57 35 26 26 25 25 30 36 48 52 62 62 57 62 68 93 83 76 72 78 77
83 83 85 72 73 72 73 74 71 68 62 53 47 43 37 30 35 34 38 44 51 61 59 48 43 43 42 39 42 46 52 55 61 66 64 51 69 88 80 79 70 70 75
84 80 80 75 79 76 77 76 71 60 50 44 40 30 22 26 27 33 39 50 62 68 61 60 44 38 42 44 49 54 58 59 58 62 56 60 61 75 91 63 71 67 68
83 74 84 78 78 77 78 70 57 46 42 39 33 27 28 28 31 39 54 61 70 73 69 60 44 38 35 36 44 50 53 56 55 51 58 70 63 74 69 67 78 78 70
81 79 87 80 77 80 75 57 49 44 41 40 39 36 28 29 43 51 54 59 61 63 57 50 48 44 42 34 31 33 38 49 43 45 55 67 71 89 86 67 65 66 71
82 82 94 81 77 90 70 62 50 45 46 45 45 36 36 47 50 52 51 51 52 50 48 45 45 45 45 44 42 38 32 33 33 36 45 58 75 85 87 68 58 55 51
81 85 92 83 81 85 74 63 51 51 48 46 39 44 48 51 53 51 50 50 50 49 46 44 43 44 45 45 43 41 39 36 32 29 29 38 39 70 81 80 57 48 42
85 87 91 91 92 84 75 59 52 50 47 44 49 53 52 52 53 55 54 54 52 49 47 43 41 40 40 40 40 37 33 36 40 36 32 34 37 62 73 73 60 44 40
99 97 89 78 79 82 82 56 50 47 50 51 56 58 58 57 57 56 60 55 53 50 49 46 44 41 35 32 34 33 36 40 39 38 36 48 42 45 71 76 68 48 43
99 99 86 72 74 74 66 72 54 51 60 63 62 61 67 65 66 65 54 51 47 48 49 47 47 36 39 42 41 39 41 39 40 38 38 49 53 52 49 49 53 56 61
100 98 80 75 80 74 60 66 66 66 69 72 72 77 71 80 77 72 56 50 48 49 50 47 37 41 43 41 40 39 39 43 37 38 41 51 48 53 78 75 66 61 60
82 71 77 81 78 63 59 60 61 68 73 78 85 83 86 84 80 67 59 58 60 55 50 47 44 45 52 45 41 40 39 35 33 32 37 43 39 42 61 86 90 88 83
55 58 63 69 73 70 59 60 70 69 76 78 83 92 83 76 77 64 56 59 56 53 52 47 46 51 47 44 43 42 41 39 34 33 32 38 23 25 50 78 88 92 93
44 51 56 66 67 70 72 74 78 80 85 94 91 91 78 70 71 62 62 54 53 50 48 48 47 45 44 42 43 44 41 41 42 38 37 42 43 30 33 59 71 76 82
45 55 63 62 67 70 74 79 88 86 84 80 89 79 71 75 72 63 57 52 51 51 52 49 50 47 45 45 42 45 48 45 45 45 39 39 49 49 46 46 54 68 68
48 62 67 71 70 71 78 83 82 80 81 73 85 80 75 68 61 60 56 56 63 60 51 51 50 47 47 46 43 41 39 39 40 45 44 41 42 48 51 51 49 50 63
47 66 78 82 81 88 71 72 70 74 66 76 87 80 67 57 64 63 65 65 52 54 52 52 52 53 45 44 41 34 33 31 30 45 44 52 47 44 44 49 54 55 59
54 74 83 84 92 69 72 49 80 71 66 74 70 57 52 47 47 52 58 59 57 55 59 56 48 44 40 41 40 29 29 29 24 35 46 52 49 50 48 45 50 47 47
64 77 83 86 74 71 70 72 79 74 70 62 64 65 52 59 63 57 59 64 57 52 48 50 48 43 40 39 41 30 33 32 32 42 46 40 43 51 49 49 47 41 47
76 80 82 94 80 77 64 87 73 71 69 59 60 63 62 60 59 58 54 54 51 51 53 52 46 41 39 44 50 32 30 30 50 48 42 42 44 42 48 45 47 46 46
76 78 83 88 84 79 73 64 58 58 61 57 58 63 60 59 58 59 57 52 50 44 51 51 51 46 38 40 53 48 31 28 26 41 41 42 40 50 45 46 46 49 51
76 81 77 74 72 65 58 63 64 66 60 53 55 54 58 61 57 60 56 50 49 47 43 54 53 49 47 43 46 50 46 38 37 36 36 37 43 41 45 43 47 49 52
69 70 66 64 57 60 64 55 54 45 45 54 56 56 55 58 57 52 51 54 55 53 56 51 47 56 50 47 43 43 48 48 45 44 38 37 37 36 37 40 44 44 48
62 66 65 60 53 58 57 53 55 55 56 55 54 54 55 55 57 54 56 58 60 58 55 59 57 58 52 50 47 45 45 41 38 38 40 33 30 31 34 37 38 41 45
49 56 60 52 53 56 58 61 59 58 52 46 45 41 36 39 43 49 61 65 65 62 63 61 60 58 58 55 49 48 44 41 40 39 35 32 30 30 34 36 36 37 38

GFSSE_925_rhum_033.txt.gz
RH
60 72 59 66 71 64 61 62 62 62 65 69 70 70 67 68 69 59 57 63 70 73 66 51 29 26 31 33 34 43 48 55 57 54 61 86 92 91 72 69 80 74 70
63 70 60 64 64 64 64 64 65 68 71 68 61 58 62 62 48 48 49 58 63 63 63 56 53 44 40 43 47 48 50 52 54 50 69 76 72 74 71 67 64 76 67
65 71 77 63 62 69 70 70 72 70 60 56 51 56 49 43 42 39 38 39 52 65 72 71 45 42 43 48 52 53 53 48 56 55 49 83 78 69 75 63 60 67 76
67 73 82 68 68 72 75 73 67 56 58 55 53 47 34 33 33 35 45 58 64 77 75 62 36 33 38 44 48 51 51 50 49 47 47 48 70 66 81 84 80 65 79
75 74 84 70 71 78 79 70 63 60 56 53 50 35 31 34 38 52 60 69 77 81 74 53 39 32 31 31 31 37 43 43 44 42 48 59 65 79 90 63 74 72 68
72 76 75 76 76 84 78 69 61 52 54 47 37 37 41 44 57 63 68 71 72 59 46 43 42 39 37 36 33 28 28 28 27 35 43 60 69 89 93 61 54 50 48
82 91 85 81 81 82 74 62 54 54 50 43 40 40 53 57 56 55 53 49 48 46 46 44 44 43 41 38 35 30 29 35 28 24 30 55 70 81 84 85 57 47 41
85 90 94 82 80 77 65 60 55 50 45 47 41 52 56 54 51 49 48 48 47 46 44 42 40 39 38 36 33 31 38 38 34 32 27 44 39 73 75 78 62 50 42
91 88 89 93 82 79 72 61 52 47 50 47 50 53 54 54 51 50 50 50 49 49 45 44 42 36 32 32 33 34 40 38 38 34 32 52 41 58 77 79 77 62 58
84 87 87 90 78 90 92 61 51 51 53 56 56 55 52 52 52 55 65 51 50 49 48 46 43 33 40 40 40 38 37 36 37 32 43 46 43 54 80 81 61 53 60
88 75 66 61 63 66 76 57 56 55 55 57 61 59 62 57 62 67 56 47 46 46 47 46 38 33 39 42 38 37 36 38 34 33 40 42 39 62 79 76 76 74 71
88 60 55 59 61 56 49 62 60 66 65 66 65 66 63 63 69 62 53 47 46 47 47 44 39 41 43 41 38 39 39 40 32 31 39 37 34 43 76 87 82 77 77
72 51 56 64 62 47 49 50 53 63 60 63 68 76 69 65 68 66 54 54 55 49 50 44 42 44 49 46 44 45 43 40 36 35 36 36 35 28 70 86 90 91 76
50 55 58 64 60 52 49 48 52 56 64 71 76 79 71 70 66 60 47 49 52 46 50 44 44 48 46 45 45 45 45 43 39 39 34 38 39 40 59 77 81 83 84
43 45 50 56 59 60 54 58 61 67 79 83 85 82 67 66 66 61 56 49 50 47 46 48 47 46 46 44 45 44 44 43 43 41 39 40 42 44 44 73 80 79 79
38 44 50 52 58 62 63 72 80 79 78 79 89 86 64 56 60 61 58 51 49 55 58 53 53 49 47 45 43 42 41 36 34 36 39 37 41 42 45 46 51 74 75
40 48 51 59 64 67 78 74 73 75 76 65 67 72 73 73 77 61 58 59 62 57 52 51 51 49 48 42 39 36 34 27 28 28 36 39 41 45 45 44 49 56 62
42 50 57 60 65 77 75 64 61 57 79 81 79 89 78 73 68 64 64 61 60 56 55 56 50 46 43 41 36 37 28 25 27 28 24 36 41 41 42 51 44 45 54
45 54 64 67 81 82 60 57 60 47 67 89 79 74 72 64 59 56 60 60 58 53 54 52 48 46 42 38 31 30 32 27 30 28 28 38 42 39 44 43 44 44 50
44 62 66 75 85 70 61 67 68 71 80 76 68 67 64 62 63 57 59 64 57 50 50 54 53 44 38 32 33 37 37 31 28 35 38 40 38 39 41 44 44 42 40
51 63 67 79 87 83 76 71 71 71 63 67 63 64 63 58 58 57 52 54 54 46 54 53 47 40 38 36 36 34 36 33 26 33 32 39 38 38 39 43 43 43 43
56 64 74 81 85 72 64 62 57 55 57 53 55 60 57 57 55 54 58 50 50 48 41 41 48 47 41 39 41 37 39 33 28 32 34 34 35 37 38 36 41 42 44
62 68 75 77 76 62 54 54 52 55 55 53 54 54 54 57 54 53 53 51 47 43 37 44 46 47 45 43 40 39 41 40 35 33 32 31 34 33 33 32 34 36 40
70 76 69 64 56 54 51 47 47 42 40 43 46 48 53 56 53 50 47 49 49 48 48 47 43 49 47 45 40 37 37 37 40 39 31 31 30 28 28 29 31 35 36
58 56 50 51 48 50 52 46 50 45 50 51 51 54 54 52 52 46 46 50 52 50 48 50 51 51 48 46 44 39 37 36 36 38 45 36 30 26 27 28 31 33 33
53 54 52 45 45 49 50 52 51 53 49 45 44 41 33 32 34 38 41 44 48 48 49 49 51 51 50 56 58 51 47 42 45 45 46 40 34 32 31 31 32 32 32